{"data":{"norad_id":40505,"epoch":"2026-09-20T03:25:34.509792Z","epoch_age_seconds":56647,"freshness":"FRESH","line1":"1 40505U 15012A   26263.14276053  .00000147  00000+0  00000+0 0  9990","line2":"2 40505   0.0186 196.5850 0003147 339.9484 273.9098  1.00270418 41950","mean_motion":1.00270418,"eccentricity":0.0003147,"inclination_deg":0.0186,"raan_deg":196.585,"arg_perigee_deg":339.9484,"mean_anomaly_deg":273.9098,"bstar":0,"rev_number":4195,"period_min":1436.1164825303,"perigee_km":35773.708823519,"apogee_km":35800.247547017,"semimajor_km":42165.115185268,"source":"CELESTRAK","updated_at":"2026-09-20T09:00:35.216022Z"}}